Time,TemperatureF,DewpointF,PressureIn,WindDirection,WindDirectionDegrees,WindSpeedMPH,WindSpeedGustMPH,Humidity,HourlyPrecipIn,Conditions,Clouds,dailyrainin,SoftwareType,DateUTC
2013-04-02 00:01:00,56.2,41.2,29.98,West,281,8.0,15.0,57,0.00,,CLR,0.00,VWS V14.01,2013-04-02 07:01:00,
2013-04-02 00:06:00,56.2,41.2,29.98,WNW,286,11.0,12.0,57,0.00,,CLR,0.00,VWS V14.01,2013-04-02 07:06:00,
2013-04-02 00:12:00,56.1,41.5,29.98,WSW,257,5.0,8.0,58,0.00,,CLR,0.00,VWS V14.01,2013-04-02 07:12:00,
2013-04-02 00:18:00,56.0,41.5,29.99,WSW,257,6.0,6.0,58,0.00,,CLR,0.00,VWS V14.01,2013-04-02 07:18:00,
2013-04-02 00:23:00,55.8,41.7,30.00,West,266,0.0,1.0,59,0.00,,CLR,0.00,VWS V14.01,2013-04-02 07:23:00,
2013-04-02 00:29:00,55.6,42.0,30.00,WSW,248,0.0,6.0,60,0.00,,CLR,0.00,VWS V14.01,2013-04-02 07:29:00,
2013-04-02 00:35:00,55.5,41.4,30.00,SW,234,3.0,10.0,59,0.00,,CLR,0.00,VWS V14.01,2013-04-02 07:35:00,
2013-04-02 00:40:00,55.4,41.3,30.00,SW,236,3.0,7.0,59,0.00,,CLR,0.00,VWS V14.01,2013-04-02 07:40:00,
2013-04-02 00:46:00,55.2,41.1,30.01,WNW,290,5.0,5.0,59,0.00,,CLR,0.00,VWS V14.01,2013-04-02 07:46:00,
2013-04-02 00:52:00,55.1,41.0,30.01,WNW,289,0.0,0.0,59,0.00,,CLR,0.00,VWS V14.01,2013-04-02 07:52:00,
2013-04-02 00:58:00,55.0,41.4,30.01,West,271,11.0,11.0,60,0.00,,CLR,0.00,VWS V14.01,2013-04-02 07:58:00,
2013-04-02 01:03:00,55.0,41.4,30.00,WNW,284,9.0,9.0,60,0.00,,CLR,0.00,VWS V14.01,2013-04-02 08:03:00,
2013-04-02 01:09:00,54.8,41.2,30.00,West,267,5.0,11.0,60,0.00,,CLR,0.00,VWS V14.01,2013-04-02 08:09:00,
2013-04-02 01:14:00,54.6,41.0,30.00,West,273,8.0,13.0,60,0.00,,CLR,0.00,VWS V14.01,2013-04-02 08:14:00,
2013-04-02 01:20:00,54.4,41.2,30.00,West,263,10.0,12.0,61,0.00,,CLR,0.00,VWS V14.01,2013-04-02 08:20:00,
2013-04-02 01:26:00,54.3,41.2,30.00,WSW,254,5.0,10.0,61,0.00,,CLR,0.00,VWS V14.01,2013-04-02 08:26:00,
2013-04-02 01:32:00,54.3,41.2,30.00,West,277,5.0,8.0,61,0.00,,CLR,0.00,VWS V14.01,2013-04-02 08:32:00,
2013-04-02 01:37:00,54.4,41.2,30.00,West,279,12.0,12.0,61,0.00,,CLR,0.00,VWS V14.01,2013-04-02 08:37:00,
2013-04-02 01:43:00,54.6,41.0,30.00,West,259,6.0,20.0,60,0.00,,CLR,0.00,VWS V14.01,2013-04-02 08:43:00,
2013-04-02 01:49:00,54.6,41.0,30.00,West,277,5.0,19.0,60,0.00,,CLR,0.00,VWS V14.01,2013-04-02 08:49:00,
2013-04-02 01:55:00,54.6,41.0,30.00,WSW,242,4.0,15.0,60,0.00,,CLR,0.00,VWS V14.01,2013-04-02 08:55:00,
2013-04-02 02:00:00,54.6,41.0,30.00,WSW,254,5.0,15.0,60,0.00,,CLR,0.00,VWS V14.01,2013-04-02 09:00:00,
2013-04-02 02:05:00,54.6,41.0,29.99,WNW,283,9.0,16.0,60,0.00,,CLR,0.00,VWS V14.01,2013-04-02 09:05:00,
2013-04-02 02:12:00,54.8,41.2,29.99,West,281,6.0,11.0,60,0.00,,CLR,0.00,VWS V14.01,2013-04-02 09:12:00,
2013-04-02 02:17:00,54.8,41.2,29.99,West,271,9.0,9.0,60,0.00,,CLR,0.00,VWS V14.01,2013-04-02 09:17:00,
2013-04-02 02:23:00,54.7,41.1,29.99,West,260,5.0,8.0,60,0.00,,CLR,0.00,VWS V14.01,2013-04-02 09:23:00,
2013-04-02 02:29:00,54.6,41.0,29.99,West,276,8.0,11.0,60,0.00,,CLR,0.00,VWS V14.01,2013-04-02 09:29:00,
2013-04-02 02:35:00,54.5,40.9,29.99,West,266,5.0,11.0,60,0.00,,CLR,0.00,VWS V14.01,2013-04-02 09:35:00,
2013-04-02 02:40:00,54.5,40.9,29.99,West,267,6.0,11.0,60,0.00,,CLR,0.00,VWS V14.01,2013-04-02 09:40:00,
2013-04-02 02:45:00,54.5,40.9,29.99,West,274,8.0,9.0,60,0.00,,CLR,0.00,VWS V14.01,2013-04-02 09:45:00,
2013-04-02 02:52:00,54.6,40.1,29.99,WSW,250,6.0,7.0,58,0.00,,CLR,0.00,VWS V14.01,2013-04-02 09:52:00,
2013-04-02 02:58:00,54.7,40.2,29.99,West,261,2.0,8.0,58,0.00,,CLR,0.00,VWS V14.01,2013-04-02 09:58:00,
2013-04-02 03:04:00,54.8,39.9,29.99,West,273,4.0,4.0,57,0.00,,CLR,0.00,VWS V14.01,2013-04-02 10:04:00,
2013-04-02 03:09:00,54.8,39.9,29.99,West,272,1.0,5.0,57,0.00,,CLR,0.00,VWS V14.01,2013-04-02 10:09:00,
2013-04-02 03:15:00,54.8,39.9,30.00,West,272,4.0,5.0,57,0.00,,CLR,0.00,VWS V14.01,2013-04-02 10:15:00,
2013-04-02 03:21:00,54.7,39.8,30.00,West,271,0.0,2.0,57,0.00,,CLR,0.00,VWS V14.01,2013-04-02 10:21:00,
2013-04-02 03:27:00,54.5,39.6,30.00,West,271,0.0,0.0,57,0.00,,CLR,0.00,VWS V14.01,2013-04-02 10:27:00,
2013-04-02 03:33:00,54.1,39.7,30.00,West,271,0.0,0.0,58,0.00,,CLR,0.00,VWS V14.01,2013-04-02 10:33:00,
2013-04-02 03:38:00,53.9,39.5,29.99,WSW,241,0.0,4.0,58,0.00,,CLR,0.00,VWS V14.01,2013-04-02 10:38:00,
2013-04-02 03:44:00,53.9,39.5,30.00,WSW,252,2.0,5.0,58,0.00,,CLR,0.00,VWS V14.01,2013-04-02 10:44:00,
2013-04-02 03:50:00,54.1,39.7,29.99,West,273,5.0,10.0,58,0.00,,CLR,0.00,VWS V14.01,2013-04-02 10:50:00,
2013-04-02 03:55:00,54.0,39.6,29.99,SW,228,0.0,8.0,58,0.00,,CLR,0.00,VWS V14.01,2013-04-02 10:55:00,
2013-04-02 04:01:00,53.8,39.8,30.00,SW,235,6.0,6.0,59,0.00,,CLR,0.00,VWS V14.01,2013-04-02 11:01:00,
2013-04-02 04:08:00,53.6,39.6,30.00,SW,235,0.0,4.0,59,0.00,,CLR,0.00,VWS V14.01,2013-04-02 11:08:00,
2013-04-02 04:13:00,53.5,40.0,30.00,SW,236,3.0,3.0,60,0.00,,CLR,0.00,VWS V14.01,2013-04-02 11:13:00,
2013-04-02 04:19:00,53.5,40.0,30.00,WSW,240,6.0,7.0,60,0.00,,CLR,0.00,VWS V14.01,2013-04-02 11:19:00,
2013-04-02 04:25:00,53.5,40.0,30.00,West,263,4.0,6.0,60,0.00,,CLR,0.00,VWS V14.01,2013-04-02 11:25:00,
2013-04-02 04:30:00,53.6,40.5,30.00,West,273,1.0,8.0,61,0.00,,CLR,0.00,VWS V14.01,2013-04-02 11:30:00,
2013-04-02 04:35:00,53.6,40.5,30.00,West,274,5.0,8.0,61,0.00,,CLR,0.00,VWS V14.01,2013-04-02 11:35:00,
2013-04-02 04:41:00,53.7,40.6,30.00,West,269,5.0,5.0,61,0.00,,CLR,0.00,VWS V14.01,2013-04-02 11:41:00,
2013-04-02 04:47:00,53.7,40.6,30.00,West,269,3.0,3.0,61,0.00,,CLR,0.00,VWS V14.01,2013-04-02 11:47:00,
2013-04-02 04:52:00,53.7,40.6,30.00,West,271,4.0,4.0,61,0.00,,CLR,0.00,VWS V14.01,2013-04-02 11:52:00,
2013-04-02 04:57:00,53.6,40.5,30.00,West,271,6.0,6.0,61,0.00,,CLR,0.00,VWS V14.01,2013-04-02 11:57:00,
2013-04-02 05:03:00,53.6,40.5,30.00,West,271,5.0,5.0,61,0.00,,CLR,0.00,VWS V14.01,2013-04-02 12:03:00,
2013-04-02 05:09:00,53.5,40.4,30.00,West,278,5.0,7.0,61,0.00,,CLR,0.00,VWS V14.01,2013-04-02 12:09:00,
2013-04-02 05:14:00,53.4,40.7,30.00,West,278,0.0,4.0,62,0.00,,CLR,0.00,VWS V14.01,2013-04-02 12:14:00,
2013-04-02 05:19:00,53.3,40.6,30.00,West,277,8.0,11.0,62,0.00,,CLR,0.00,VWS V14.01,2013-04-02 12:19:00,
2013-04-02 05:30:00,53.3,41.0,30.01,West,280,9.0,9.0,63,0.00,,CLR,0.00,VWS V14.01,2013-04-02 12:30:00,
2013-04-02 05:36:00,53.3,41.0,30.01,West,279,6.0,7.0,63,0.00,,CLR,0.00,VWS V14.01,2013-04-02 12:36:00,
2013-04-02 05:42:00,53.1,41.3,30.01,West,275,5.0,5.0,64,0.00,,CLR,0.00,VWS V14.01,2013-04-02 12:42:00,
2013-04-02 05:47:00,52.9,41.1,30.01,West,275,7.0,7.0,64,0.00,,CLR,0.00,VWS V14.01,2013-04-02 12:47:00,
2013-04-02 05:53:00,52.9,41.1,30.01,West,279,6.0,6.0,64,0.00,,CLR,0.00,VWS V14.01,2013-04-02 12:53:00,
2013-04-02 05:59:00,52.8,41.0,30.01,West,275,5.0,6.0,64,0.00,,CLR,0.00,VWS V14.01,2013-04-02 12:59:00,
2013-04-02 06:05:00,52.6,41.2,30.01,West,275,0.0,6.0,65,0.00,,CLR,0.00,VWS V14.01,2013-04-02 13:05:00,
2013-04-02 06:10:00,52.4,41.0,30.01,West,277,2.0,2.0,65,0.00,,CLR,0.00,VWS V14.01,2013-04-02 13:10:00,
2013-04-02 06:15:00,52.4,41.4,30.01,West,278,6.0,11.0,66,0.00,,CLR,0.00,VWS V14.01,2013-04-02 13:15:00,
2013-04-02 06:20:00,52.3,41.3,30.01,West,281,8.0,8.0,66,0.00,,CLR,0.00,VWS V14.01,2013-04-02 13:20:00,
2013-04-02 06:25:00,52.3,41.3,30.01,West,281,2.0,8.0,66,0.00,,CLR,0.00,VWS V14.01,2013-04-02 13:25:00,
2013-04-02 06:32:00,52.2,41.2,30.01,West,281,4.0,5.0,66,0.00,,CLR,0.00,VWS V14.01,2013-04-02 13:32:00,
2013-04-02 06:37:00,52.2,41.2,30.01,WNW,283,8.0,8.0,66,0.00,,CLR,0.00,VWS V14.01,2013-04-02 13:37:00,
2013-04-02 06:43:00,52.3,41.3,30.01,WNW,283,1.0,8.0,66,0.00,,CLR,0.00,VWS V14.01,2013-04-02 13:43:00,
2013-04-02 06:49:00,52.2,41.2,30.01,WNW,283,7.0,8.0,66,0.00,,CLR,0.00,VWS V14.01,2013-04-02 13:49:00,
2013-04-02 06:55:00,52.2,41.2,30.01,WNW,283,7.0,7.0,66,0.00,,CLR,0.00,VWS V14.01,2013-04-02 13:55:00,
2013-04-02 07:00:00,52.4,41.4,30.01,WNW,283,4.0,4.0,66,0.00,,CLR,0.00,VWS V14.01,2013-04-02 14:00:00,
2013-04-02 07:07:00,52.6,41.6,30.01,WNW,283,4.0,4.0,66,0.00,,CLR,0.00,VWS V14.01,2013-04-02 14:07:00,
2013-04-02 07:12:00,52.6,41.6,30.01,WNW,283,0.0,4.0,66,0.00,,CLR,0.00,VWS V14.01,2013-04-02 14:12:00,
2013-04-02 07:18:00,52.7,41.7,30.02,WNW,283,2.0,2.0,66,0.00,,CLR,0.00,VWS V14.01,2013-04-02 14:18:00,
2013-04-02 07:24:00,52.8,41.8,30.02,WNW,283,0.0,2.0,66,0.00,,CLR,0.00,VWS V14.01,2013-04-02 14:24:00,
2013-04-02 07:29:00,53.1,42.1,30.02,WNW,283,0.0,2.0,66,0.00,,CLR,0.00,VWS V14.01,2013-04-02 14:29:00,
2013-04-02 07:35:00,53.5,42.0,30.03,WNW,283,0.0,2.0,65,0.00,,CLR,0.00,VWS V14.01,2013-04-02 14:35:00,
2013-04-02 07:40:00,53.7,41.8,30.03,WNW,283,2.0,2.0,64,0.00,,CLR,0.00,VWS V14.01,2013-04-02 14:40:00,
2013-04-02 07:46:00,54.0,42.5,30.03,WNW,283,0.0,2.0,65,0.00,,CLR,0.00,VWS V14.01,2013-04-02 14:46:00,
2013-04-02 07:52:00,54.2,42.7,30.03,WNW,284,0.0,2.0,65,0.00,,CLR,0.00,VWS V14.01,2013-04-02 14:52:00,
2013-04-02 07:57:00,54.4,42.9,30.03,WNW,284,0.0,2.0,65,0.00,,CLR,0.00,VWS V14.01,2013-04-02 14:57:00,
2013-04-02 08:02:00,54.7,42.8,30.03,WNW,284,0.0,2.0,64,0.00,,CLR,0.00,VWS V14.01,2013-04-02 15:02:00,
2013-04-02 08:08:00,54.9,42.6,30.03,WNW,284,6.0,6.0,63,0.00,,CLR,0.00,VWS V14.01,2013-04-02 15:08:00,
2013-04-02 08:13:00,55.4,42.6,30.03,WNW,285,7.0,7.0,62,0.00,,CLR,0.00,VWS V14.01,2013-04-02 15:13:00,
2013-04-02 08:19:00,55.9,41.8,30.03,WNW,292,5.0,7.0,59,0.00,,CLR,0.00,VWS V14.01,2013-04-02 15:19:00,
2013-04-02 08:24:00,56.3,42.6,30.04,WNW,291,1.0,7.0,60,0.00,,CLR,0.00,VWS V14.01,2013-04-02 15:24:00,
2013-04-02 08:30:00,56.8,42.6,30.04,WNW,300,7.0,7.0,59,0.00,,CLR,0.00,VWS V14.01,2013-04-02 15:30:00,
2013-04-02 08:36:00,57.3,42.7,30.03,WNW,290,4.0,7.0,58,0.00,,CLR,0.00,VWS V14.01,2013-04-02 15:36:00,
2013-04-02 08:41:00,57.5,42.4,30.03,WNW,284,2.0,7.0,57,0.00,,CLR,0.00,VWS V14.01,2013-04-02 15:41:00,
2013-04-02 08:47:00,57.9,41.8,30.03,WNW,294,5.0,7.0,55,0.00,,CLR,0.00,VWS V14.01,2013-04-02 15:47:00,
2013-04-02 08:52:00,58.2,42.1,30.03,WNW,292,7.0,7.0,55,0.00,,CLR,0.00,VWS V14.01,2013-04-02 15:52:00,
2013-04-02 08:58:00,58.4,42.3,30.03,WNW,298,0.0,7.0,55,0.00,,CLR,0.00,VWS V14.01,2013-04-02 15:58:00,
2013-04-02 09:04:00,59.0,41.9,30.03,WNW,292,6.0,6.0,53,0.00,,CLR,0.00,VWS V14.01,2013-04-02 16:04:00,
2013-04-02 09:10:00,59.3,41.7,30.03,WNW,292,8.0,8.0,52,0.00,,CLR,0.00,VWS V14.01,2013-04-02 16:10:00,
2013-04-02 09:15:00,59.8,42.2,30.03,WNW,296,8.0,8.0,52,0.00,,CLR,0.00,VWS V14.01,2013-04-02 16:15:00,
2013-04-02 09:52:00,62.1,41.1,30.03,North,0,5.0,10.0,46,0.00,,CLR,0.00,VWS V14.01,2013-04-02 16:52:00,
2013-04-02 09:57:00,63.0,40.8,30.03,NNW,344,6.0,6.0,44,0.00,,CLR,0.00,VWS V14.01,2013-04-02 16:57:00,
2013-04-02 10:02:00,63.1,40.9,30.03,NW,317,2.0,6.0,44,0.00,,CLR,0.00,VWS V14.01,2013-04-02 17:02:00,
2013-04-02 10:08:00,63.3,41.0,30.03,NNW,331,7.0,7.0,44,0.00,,CLR,0.00,VWS V14.01,2013-04-02 17:08:00,
2013-04-02 10:14:00,64.1,41.8,30.03,NNW,341,0.0,7.0,44,0.00,,CLR,0.00,VWS V14.01,2013-04-02 17:14:00,
2013-04-02 10:19:00,64.4,41.4,30.03,NNW,338,0.0,0.0,43,0.00,,CLR,0.00,VWS V14.01,2013-04-02 17:19:00,
2013-04-02 10:25:00,64.8,41.8,30.03,North,350,0.0,4.0,43,0.00,,CLR,0.00,VWS V14.01,2013-04-02 17:25:00,
2013-04-02 10:32:00,65.0,40.8,30.03,NE,42,1.0,3.0,41,0.00,,CLR,0.00,VWS V14.01,2013-04-02 17:32:00,
2013-04-02 10:37:00,65.4,41.1,30.03,NE,44,2.0,5.0,41,0.00,,CLR,0.00,VWS V14.01,2013-04-02 17:37:00,
2013-04-02 10:43:00,65.7,40.1,30.03,NE,48,5.0,5.0,39,0.00,,CLR,0.00,VWS V14.01,2013-04-02 17:43:00,
2013-04-02 10:48:00,66.0,41.0,30.03,NNE,21,5.0,5.0,40,0.00,,CLR,0.00,VWS V14.01,2013-04-02 17:48:00,
2013-04-02 10:53:00,66.7,41.0,30.02,NE,34,0.0,4.0,39,0.00,,CLR,0.00,VWS V14.01,2013-04-02 17:53:00,
2013-04-02 10:59:00,66.8,40.4,30.02,NE,34,2.0,4.0,38,0.00,,CLR,0.00,VWS V14.01,2013-04-02 17:59:00,
2013-04-02 11:04:00,67.4,39.5,30.02,NNE,20,0.0,4.0,36,0.00,,CLR,0.00,VWS V14.01,2013-04-02 18:04:00,
2013-04-02 11:10:00,67.3,40.2,30.03,NE,39,5.0,5.0,37,0.00,,CLR,0.00,VWS V14.01,2013-04-02 18:10:00,
2013-04-02 11:15:00,67.4,39.5,30.02,NE,49,0.0,5.0,36,0.00,,CLR,0.00,VWS V14.01,2013-04-02 18:15:00,
2013-04-02 11:20:00,67.4,41.6,30.02,NE,49,0.0,5.0,39,0.00,,CLR,0.00,VWS V14.01,2013-04-02 18:20:00,
2013-04-02 11:26:00,68.0,39.3,30.01,NE,49,0.0,5.0,35,0.00,,CLR,0.00,VWS V14.01,2013-04-02 18:26:00,
2013-04-02 11:32:00,68.3,39.6,30.01,NNW,339,4.0,4.0,35,0.00,,CLR,0.00,VWS V14.01,2013-04-02 18:32:00,
2013-04-02 11:37:00,68.4,39.7,30.01,WNW,290,1.0,8.0,35,0.00,,CLR,0.00,VWS V14.01,2013-04-02 18:37:00,
2013-04-02 11:42:00,68.8,38.5,30.01,SW,227,4.0,5.0,33,0.00,,CLR,0.00,VWS V14.01,2013-04-02 18:42:00,
2013-04-02 11:50:00,69.1,40.3,30.01,SW,231,0.0,0.0,35,0.00,,CLR,0.00,VWS V14.01,2013-04-02 18:50:00,
2013-04-02 11:57:00,69.5,39.2,30.00,NE,51,6.0,8.0,33,0.00,,CLR,0.00,VWS V14.01,2013-04-02 18:57:00,
2013-04-02 12:02:00,69.7,37.7,30.00,ENE,74,5.0,8.0,31,0.00,,CLR,0.00,VWS V14.01,2013-04-02 19:02:00,
2013-04-02 12:07:00,69.9,37.9,30.00,NE,46,2.0,8.0,31,0.00,,CLR,0.00,VWS V14.01,2013-04-02 19:07:00,
2013-04-02 12:13:00,70.6,38.5,30.00,NE,46,4.0,8.0,31,0.00,,CLR,0.00,VWS V14.01,2013-04-02 19:13:00,
2013-04-02 12:18:00,70.9,38.8,30.00,ENE,59,0.0,8.0,31,0.00,,CLR,0.00,VWS V14.01,2013-04-02 19:18:00,
2013-04-02 12:24:00,71.5,38.5,30.00,ENE,63,2.0,8.0,30,0.00,,CLR,0.00,VWS V14.01,2013-04-02 19:24:00,
2013-04-02 12:29:00,71.6,39.4,30.00,ENE,64,0.0,8.0,31,0.00,,CLR,0.00,VWS V14.01,2013-04-02 19:29:00,
2013-04-02 12:35:00,72.0,38.0,30.00,NE,50,0.0,8.0,29,0.00,,CLR,0.00,VWS V14.01,2013-04-02 19:35:00,
2013-04-02 12:40:00,71.9,38.0,29.99,NE,49,0.0,0.0,29,0.00,,CLR,0.00,VWS V14.01,2013-04-02 19:40:00,
2013-04-02 12:45:00,72.2,38.2,29.99,NNE,27,0.0,3.0,29,0.00,,CLR,0.00,VWS V14.01,2013-04-02 19:45:00,
2013-04-02 12:50:00,72.1,37.2,29.99,NNE,20,0.0,5.0,28,0.00,,CLR,0.00,VWS V14.01,2013-04-02 19:50:00,
2013-04-02 12:56:00,72.2,37.3,29.99,NNE,17,3.0,5.0,28,0.00,,CLR,0.00,VWS V14.01,2013-04-02 19:56:00,
2013-04-02 13:02:00,72.2,37.3,29.98,NNW,332,0.0,7.0,28,0.00,,CLR,0.00,VWS V14.01,2013-04-02 20:02:00,
2013-04-02 13:07:00,72.1,38.1,29.98,NNW,332,0.0,2.0,29,0.00,,CLR,0.00,VWS V14.01,2013-04-02 20:07:00,
2013-04-02 13:13:00,72.6,38.5,29.97,NNW,332,0.0,4.0,29,0.00,,CLR,0.00,VWS V14.01,2013-04-02 20:13:00,
2013-04-02 13:18:00,73.1,39.8,29.97,SSE,165,0.0,9.0,30,0.00,,CLR,0.00,VWS V14.01,2013-04-02 20:18:00,
2013-04-02 13:23:00,73.8,40.5,29.97,SSE,160,4.0,7.0,30,0.00,,CLR,0.00,VWS V14.01,2013-04-02 20:23:00,
2013-04-02 13:28:00,74.0,37.9,29.97,SSE,161,1.0,4.0,27,0.00,,CLR,0.00,VWS V14.01,2013-04-02 20:28:00,
2013-04-02 13:33:00,74.0,37.0,29.97,South,183,2.0,8.0,26,0.00,,CLR,0.00,VWS V14.01,2013-04-02 20:33:00,
2013-04-02 13:39:00,73.9,37.8,29.97,South,183,2.0,8.0,27,0.00,,CLR,0.00,VWS V14.01,2013-04-02 20:39:00,
2013-04-02 13:44:00,73.7,38.6,29.97,South,183,0.0,2.0,28,0.00,,CLR,0.00,VWS V14.01,2013-04-02 20:44:00,
2013-04-02 13:49:00,73.8,37.8,29.97,South,184,1.0,2.0,27,0.00,,CLR,0.00,VWS V14.01,2013-04-02 20:49:00,
2013-04-02 13:54:00,73.9,36.9,29.97,South,184,0.0,0.0,26,0.00,,CLR,0.00,VWS V14.01,2013-04-02 20:54:00,
2013-04-02 14:00:00,74.0,37.9,29.96,South,184,0.0,0.0,27,0.00,,CLR,0.00,VWS V14.01,2013-04-02 21:00:00,
2013-04-02 14:05:00,74.6,37.5,29.96,South,183,5.0,5.0,26,0.00,,CLR,0.00,VWS V14.01,2013-04-02 21:05:00,
2013-04-02 14:10:00,74.7,38.5,29.96,South,183,0.0,5.0,27,0.00,,CLR,0.00,VWS V14.01,2013-04-02 21:10:00,
2013-04-02 14:15:00,75.1,35.9,29.95,West,263,6.0,6.0,24,0.00,,CLR,0.00,VWS V14.01,2013-04-02 21:15:00,
2013-04-02 14:20:00,74.8,35.6,29.95,West,263,2.0,6.0,24,0.00,,CLR,0.00,VWS V14.01,2013-04-02 21:20:00,
2013-04-02 14:25:00,74.1,35.0,29.95,WSW,255,3.0,6.0,24,0.00,,CLR,0.00,VWS V14.01,2013-04-02 21:25:00,
2013-04-02 14:31:00,73.8,34.8,29.95,WSW,254,0.0,6.0,24,0.00,,CLR,0.00,VWS V14.01,2013-04-02 21:31:00,
2013-04-02 14:36:00,73.6,35.6,29.94,WSW,244,0.0,6.0,25,0.00,,CLR,0.00,VWS V14.01,2013-04-02 21:36:00,
2013-04-02 14:42:00,73.8,35.8,29.94,WSW,244,0.0,0.0,25,0.00,,CLR,0.00,VWS V14.01,2013-04-02 21:42:00,
2013-04-02 14:48:00,74.8,34.6,29.94,WSW,244,3.0,3.0,23,0.00,,CLR,0.00,VWS V14.01,2013-04-02 21:48:00,
2013-04-02 14:54:00,75.4,36.1,29.94,NE,39,2.0,2.0,24,0.00,,CLR,0.00,VWS V14.01,2013-04-02 21:54:00,
2013-04-02 14:59:00,75.8,35.4,29.94,NW,311,1.0,2.0,23,0.00,,CLR,0.00,VWS V14.01,2013-04-02 21:59:00,
2013-04-02 15:04:00,76.5,34.9,29.93,West,280,9.0,9.0,22,0.00,,CLR,0.00,VWS V14.01,2013-04-02 22:04:00,
2013-04-02 15:10:00,76.5,34.9,29.93,WNW,282,2.0,9.0,22,0.00,,CLR,0.00,VWS V14.01,2013-04-02 22:10:00,
2013-04-02 15:15:00,76.7,35.0,29.93,NW,305,6.0,9.0,22,0.00,,CLR,0.00,VWS V14.01,2013-04-02 22:15:00,
2013-04-02 15:20:00,76.7,35.0,29.93,WNW,297,6.0,9.0,22,0.00,,CLR,0.00,VWS V14.01,2013-04-02 22:20:00,
2013-04-02 15:26:00,76.6,37.1,29.93,NNW,327,8.0,9.0,24,0.00,,CLR,0.00,VWS V14.01,2013-04-02 22:26:00,
2013-04-02 15:31:00,76.2,37.8,29.93,WNW,294,7.0,9.0,25,0.00,,CLR,0.00,VWS V14.01,2013-04-02 22:31:00,
2013-04-02 15:37:00,74.5,36.4,29.92,WSW,254,7.0,17.0,25,0.00,,CLR,0.00,VWS V14.01,2013-04-02 22:37:00,
2013-04-02 15:42:00,74.4,36.3,29.92,WNW,293,13.0,17.0,25,0.00,,CLR,0.00,VWS V14.01,2013-04-02 22:42:00,
2013-04-02 15:48:00,74.0,33.9,29.92,WNW,294,1.0,17.0,23,0.00,,CLR,0.00,VWS V14.01,2013-04-02 22:48:00,
2013-04-02 15:53:00,74.2,34.1,29.92,NW,310,13.0,17.0,23,0.00,,CLR,0.00,VWS V14.01,2013-04-02 22:53:00,
2013-04-02 15:58:00,74.5,33.2,29.92,NW,304,6.0,17.0,22,0.00,,CLR,0.00,VWS V14.01,2013-04-02 22:58:00,
2013-04-02 16:03:00,74.5,33.2,29.92,WNW,297,14.0,17.0,22,0.00,,CLR,0.00,VWS V14.01,2013-04-02 23:03:00,
2013-04-02 16:08:00,74.3,31.9,29.92,WNW,291,12.0,17.0,21,0.00,,CLR,0.00,VWS V14.01,2013-04-02 23:08:00,
2013-04-02 16:14:00,74.1,34.0,29.92,WNW,290,9.0,12.0,23,0.00,,CLR,0.00,VWS V14.01,2013-04-02 23:14:00,
2013-04-02 16:19:00,74.0,35.0,29.92,WNW,303,17.0,17.0,24,0.00,,CLR,0.00,VWS V14.01,2013-04-02 23:19:00,
2013-04-02 16:24:00,73.7,34.7,29.92,WNW,303,15.0,15.0,24,0.00,,CLR,0.00,VWS V14.01,2013-04-02 23:24:00,
2013-04-02 16:29:00,73.2,36.3,29.91,NW,305,19.0,19.0,26,0.00,,CLR,0.00,VWS V14.01,2013-04-02 23:29:00,
2013-04-02 16:35:00,72.9,36.0,29.92,WNW,302,7.0,19.0,26,0.00,,CLR,0.00,VWS V14.01,2013-04-02 23:35:00,
2013-04-02 16:40:00,72.4,36.6,29.92,NW,316,12.0,12.0,27,0.00,,CLR,0.00,VWS V14.01,2013-04-02 23:40:00,
2013-04-02 16:45:00,72.5,36.7,29.92,NW,304,20.0,20.0,27,0.00,,CLR,0.00,VWS V14.01,2013-04-02 23:45:00,
2013-04-02 16:50:00,72.6,35.8,29.92,WNW,290,11.0,11.0,26,0.00,,CLR,0.00,VWS V14.01,2013-04-02 23:50:00,
2013-04-02 16:56:00,72.4,36.6,29.92,WNW,300,11.0,11.0,27,0.00,,CLR,0.00,VWS V14.01,2013-04-02 23:56:00,
2013-04-02 17:02:00,72.2,36.4,29.92,West,279,20.0,20.0,27,0.00,,CLR,0.00,VWS V14.01,2013-04-03 00:02:00,
2013-04-02 17:07:00,71.8,36.0,29.91,WNW,289,14.0,20.0,27,0.00,,CLR,0.00,VWS V14.01,2013-04-03 00:07:00,
2013-04-02 17:12:00,71.5,35.8,29.91,West,281,14.0,14.0,27,0.00,,CLR,0.00,VWS V14.01,2013-04-03 00:12:00,
2013-04-02 17:18:00,71.1,37.3,29.92,WNW,295,11.0,14.0,29,0.00,,CLR,0.00,VWS V14.01,2013-04-03 00:18:00,
2013-04-02 17:23:00,71.1,38.1,29.92,WNW,294,12.0,14.0,30,0.00,,CLR,0.00,VWS V14.01,2013-04-03 00:23:00,
2013-04-02 17:28:00,71.1,37.3,29.92,WNW,301,16.0,16.0,29,0.00,,CLR,0.00,VWS V14.01,2013-04-03 00:28:00,
2013-04-02 17:34:00,70.6,37.7,29.92,WNW,292,12.0,16.0,30,0.00,,CLR,0.00,VWS V14.01,2013-04-03 00:34:00,
2013-04-02 17:39:00,70.2,38.2,29.92,West,277,9.0,16.0,31,0.00,,CLR,0.00,VWS V14.01,2013-04-03 00:39:00,
2013-04-02 17:44:00,69.4,39.1,29.92,NW,309,20.0,20.0,33,0.00,,CLR,0.00,VWS V14.01,2013-04-03 00:44:00,
2013-04-02 17:50:00,69.0,37.9,29.92,WNW,284,12.0,20.0,32,0.00,,CLR,0.00,VWS V14.01,2013-04-03 00:50:00,
2013-04-02 17:55:00,68.6,38.4,29.93,West,278,15.0,20.0,33,0.00,,CLR,0.00,VWS V14.01,2013-04-03 00:55:00,
2013-04-02 18:01:00,68.2,38.8,29.93,NW,323,13.0,13.0,34,0.00,,CLR,0.00,VWS V14.01,2013-04-03 01:01:00,
2013-04-02 18:06:00,67.9,39.3,29.93,WNW,283,15.0,15.0,35,0.00,,CLR,0.00,VWS V14.01,2013-04-03 01:06:00,
2013-04-02 18:13:00,67.4,38.8,29.93,WNW,302,12.0,15.0,35,0.00,,CLR,0.00,VWS V14.01,2013-04-03 01:13:00,
2013-04-02 18:18:00,66.9,38.4,29.93,West,279,8.0,15.0,35,0.00,,CLR,0.00,VWS V14.01,2013-04-03 01:18:00,
2013-04-02 18:23:00,66.2,38.5,29.93,WNW,290,9.0,16.0,36,0.00,,CLR,0.00,VWS V14.01,2013-04-03 01:23:00,
2013-04-02 18:28:00,66.0,38.3,29.94,NW,312,13.0,16.0,36,0.00,,CLR,0.00,VWS V14.01,2013-04-03 01:28:00,
2013-04-02 18:34:00,65.8,36.7,29.94,WNW,299,8.0,14.0,34,0.00,,CLR,0.00,VWS V14.01,2013-04-03 01:34:00,
2013-04-02 18:39:00,65.7,38.0,29.94,WNW,296,18.0,18.0,36,0.00,,CLR,0.00,VWS V14.01,2013-04-03 01:39:00,
2013-04-02 18:44:00,65.6,38.0,29.94,WNW,288,7.0,18.0,36,0.00,,CLR,0.00,VWS V14.01,2013-04-03 01:44:00,
2013-04-02 18:49:00,65.6,36.5,29.95,West,273,11.0,18.0,34,0.00,,CLR,0.00,VWS V14.01,2013-04-03 01:49:00,
2013-04-02 18:54:00,65.5,37.2,29.95,West,277,14.0,18.0,35,0.00,,CLR,0.00,VWS V14.01,2013-04-03 01:54:00,
2013-04-02 19:00:00,65.3,37.0,29.95,WNW,294,11.0,18.0,35,0.00,,CLR,0.00,VWS V14.01,2013-04-03 02:00:00,
2013-04-02 19:05:00,65.1,36.8,29.95,West,275,6.0,18.0,35,0.00,,CLR,0.00,VWS V14.01,2013-04-03 02:05:00,
2013-04-02 19:10:00,64.6,36.3,29.95,WNW,283,5.0,5.0,35,0.00,,CLR,0.00,VWS V14.01,2013-04-03 02:10:00,
2013-04-02 19:15:00,64.1,36.6,29.95,WNW,285,6.0,7.0,36,0.00,,CLR,0.00,VWS V14.01,2013-04-03 02:15:00,
2013-04-02 19:21:00,64.0,37.2,29.95,West,275,7.0,7.0,37,0.00,,CLR,0.00,VWS V14.01,2013-04-03 02:21:00,
2013-04-02 19:27:00,63.3,37.3,29.95,West,273,5.0,9.0,38,0.00,,CLR,0.00,VWS V14.01,2013-04-03 02:27:00,
2013-04-02 19:32:00,62.9,36.9,29.95,West,271,7.0,8.0,38,0.00,,CLR,0.00,VWS V14.01,2013-04-03 02:32:00,
2013-04-02 19:38:00,62.7,37.4,29.95,WNW,287,9.0,9.0,39,0.00,,CLR,0.00,VWS V14.01,2013-04-03 02:38:00,
2013-04-02 19:43:00,62.4,37.1,29.95,WSW,257,3.0,8.0,39,0.00,,CLR,0.00,VWS V14.01,2013-04-03 02:43:00,
2013-04-02 19:48:00,62.2,37.6,29.95,WNW,284,6.0,9.0,40,0.00,,CLR,0.00,VWS V14.01,2013-04-03 02:48:00,
2013-04-02 19:53:00,61.9,37.3,29.95,West,277,8.0,13.0,40,0.00,,CLR,0.00,VWS V14.01,2013-04-03 02:53:00,
2013-04-02 19:59:00,61.7,37.2,29.95,WNW,301,9.0,9.0,40,0.00,,CLR,0.00,VWS V14.01,2013-04-03 02:59:00,
2013-04-02 20:04:00,61.3,37.4,29.95,WNW,295,6.0,7.0,41,0.00,,CLR,0.00,VWS V14.01,2013-04-03 03:04:00,
2013-04-02 20:09:00,61.1,37.2,29.96,WNW,287,5.0,5.0,41,0.00,,CLR,0.00,VWS V14.01,2013-04-03 03:09:00,
2013-04-02 20:15:00,60.8,36.3,29.96,WNW,287,0.0,4.0,40,0.00,,CLR,0.00,VWS V14.01,2013-04-03 03:15:00,
2013-04-02 20:20:00,60.6,36.2,29.96,WNW,287,0.0,4.0,40,0.00,,CLR,0.00,VWS V14.01,2013-04-03 03:20:00,
2013-04-02 20:26:00,60.5,35.4,29.96,West,281,5.0,5.0,39,0.00,,CLR,0.00,VWS V14.01,2013-04-03 03:26:00,
2013-04-02 20:32:00,60.6,36.2,29.96,West,279,6.0,6.0,40,0.00,,CLR,0.00,VWS V14.01,2013-04-03 03:32:00,
2013-04-02 20:37:00,60.6,36.2,29.96,WNW,296,8.0,8.0,40,0.00,,CLR,0.00,VWS V14.01,2013-04-03 03:37:00,
2013-04-02 20:43:00,60.7,36.3,29.97,WNW,282,9.0,9.0,40,0.00,,CLR,0.00,VWS V14.01,2013-04-03 03:43:00,
2013-04-02 20:48:00,60.8,35.7,29.97,West,277,12.0,12.0,39,0.00,,CLR,0.00,VWS V14.01,2013-04-03 03:48:00,
2013-04-02 20:53:00,61.0,35.9,29.97,West,269,6.0,9.0,39,0.00,,CLR,0.00,VWS V14.01,2013-04-03 03:53:00,
2013-04-02 20:58:00,61.1,35.3,29.96,West,267,2.0,2.0,38,0.00,,CLR,0.00,VWS V14.01,2013-04-03 03:58:00,
2013-04-02 21:00:00,61.1,34.7,29.96,West,267,2.0,2.0,37,0.00,,CLR,0.00,VWS V14.01,2013-04-03 04:00:00,
2013-04-02 21:01:00,61.0,33.9,29.97,West,267,1.0,2.0,36,0.00,,CLR,0.00,VWS V14.01,2013-04-03 04:01:00,
2013-04-02 21:02:00,61.0,33.9,29.97,West,267,0.0,2.0,36,0.00,,CLR,0.00,VWS V14.01,2013-04-03 04:02:00,
2013-04-02 21:05:00,60.8,33.7,29.97,West,267,0.0,2.0,36,0.00,,CLR,0.00,VWS V14.01,2013-04-03 04:05:00,
2013-04-02 21:10:00,60.6,34.2,29.97,West,267,0.0,0.0,37,0.00,,CLR,0.00,VWS V14.01,2013-04-03 04:10:00,
2013-04-02 21:16:00,60.2,34.5,29.98,West,267,0.0,0.0,38,0.00,,CLR,0.00,VWS V14.01,2013-04-03 04:16:00,
2013-04-02 21:22:00,59.7,34.7,29.97,West,267,0.0,0.0,39,0.00,,CLR,0.00,VWS V14.01,2013-04-03 04:22:00,
2013-04-02 21:27:00,59.3,34.4,29.98,West,267,0.0,0.0,39,0.00,,CLR,0.00,VWS V14.01,2013-04-03 04:27:00,
2013-04-02 21:32:00,58.8,34.5,29.98,West,267,0.0,0.0,40,0.00,,CLR,0.00,VWS V14.01,2013-04-03 04:32:00,
2013-04-02 21:38:00,58.3,34.1,29.98,West,267,0.0,0.0,40,0.00,,CLR,0.00,VWS V14.01,2013-04-03 04:38:00,
2013-04-02 21:43:00,57.8,33.7,29.98,West,267,0.0,0.0,40,0.00,,CLR,0.00,VWS V14.01,2013-04-03 04:43:00,
2013-04-02 21:48:00,57.4,33.9,29.98,West,267,0.0,0.0,41,0.00,,CLR,0.00,VWS V14.01,2013-04-03 04:48:00,
2013-04-02 21:53:00,57.0,34.8,29.98,West,267,0.0,0.0,43,0.00,,CLR,0.00,VWS V14.01,2013-04-03 04:53:00,
2013-04-02 21:58:00,56.6,33.8,29.98,West,267,0.0,0.0,42,0.00,,CLR,0.00,VWS V14.01,2013-04-03 04:58:00,
2013-04-02 22:03:00,56.1,33.9,29.99,West,267,0.0,0.0,43,0.00,,CLR,0.00,VWS V14.01,2013-04-03 05:03:00,
2013-04-02 22:08:00,55.9,34.3,29.99,West,267,0.0,0.0,44,0.00,,CLR,0.00,VWS V14.01,2013-04-03 05:08:00,
2013-04-02 22:14:00,55.7,34.7,29.99,West,267,0.0,0.0,45,0.00,,CLR,0.00,VWS V14.01,2013-04-03 05:14:00,
2013-04-02 22:19:00,55.5,34.5,29.99,West,267,0.0,0.0,45,0.00,,CLR,0.00,VWS V14.01,2013-04-03 05:19:00,
2013-04-02 22:27:00,55.8,34.8,29.99,West,267,0.0,1.0,45,0.00,,CLR,0.00,VWS V14.01,2013-04-03 05:27:00,
2013-04-02 22:32:00,56.0,34.4,29.99,West,267,0.0,0.0,44,0.00,,CLR,0.00,VWS V14.01,2013-04-03 05:32:00,
2013-04-02 22:37:00,55.9,34.9,29.99,West,267,0.0,0.0,45,0.00,,CLR,0.00,VWS V14.01,2013-04-03 05:37:00,
2013-04-02 22:42:00,55.6,35.2,29.99,West,267,0.0,2.0,46,0.00,,CLR,0.00,VWS V14.01,2013-04-03 05:42:00,
2013-04-02 22:47:00,55.3,34.3,29.99,West,267,0.0,0.0,45,0.00,,CLR,0.00,VWS V14.01,2013-04-03 05:47:00,
2013-04-02 22:52:00,54.9,34.5,29.99,West,267,0.0,0.0,46,0.00,,CLR,0.00,VWS V14.01,2013-04-03 05:52:00,
2013-04-02 22:57:00,54.5,34.2,29.99,West,267,0.0,0.0,46,0.00,,CLR,0.00,VWS V14.01,2013-04-03 05:57:00,
2013-04-02 23:03:00,54.1,34.3,29.99,West,267,0.0,0.0,47,0.00,,CLR,0.00,VWS V14.01,2013-04-03 06:03:00,
2013-04-02 23:08:00,53.6,33.3,29.99,West,267,0.0,0.0,46,0.00,,CLR,0.00,VWS V14.01,2013-04-03 06:08:00,
2013-04-02 23:13:00,53.1,33.4,29.99,West,267,0.0,0.0,47,0.00,,CLR,0.00,VWS V14.01,2013-04-03 06:13:00,
2013-04-02 23:18:00,52.8,33.2,29.99,West,267,0.0,0.0,47,0.00,,CLR,0.00,VWS V14.01,2013-04-03 06:18:00,
2013-04-02 23:23:00,52.5,32.9,29.99,West,267,0.0,0.0,47,0.00,,CLR,0.00,VWS V14.01,2013-04-03 06:23:00,
2013-04-02 23:28:00,52.3,32.7,29.99,West,267,0.0,0.0,47,0.00,,CLR,0.00,VWS V14.01,2013-04-03 06:28:00,
2013-04-02 23:33:00,52.0,32.9,29.99,West,267,0.0,0.0,48,0.00,,CLR,0.00,VWS V14.01,2013-04-03 06:33:00,
2013-04-02 23:38:00,51.8,33.3,30.00,West,267,0.0,0.0,49,0.00,,CLR,0.00,VWS V14.01,2013-04-03 06:38:00,
2013-04-02 23:44:00,51.5,33.0,29.99,West,267,0.0,0.0,49,0.00,,CLR,0.00,VWS V14.01,2013-04-03 06:44:00,
2013-04-02 23:49:00,51.2,33.2,29.99,West,267,0.0,0.0,50,0.00,,CLR,0.00,VWS V14.01,2013-04-03 06:49:00,
2013-04-02 23:54:00,50.9,33.4,29.99,West,267,0.0,0.0,51,0.00,,CLR,0.00,VWS V14.01,2013-04-03 06:54:00,
2013-04-02 23:59:00,50.7,33.2,29.99,West,267,0.0,0.0,51,0.00,,CLR,0.00,VWS V14.01,2013-04-03 06:59:00,